User: anonymous   Login
Location: Oshawa
(43.9000°N, 78.8670°W)
Time: 16:18:18
(UTC-05:00)
Language:

Cosmos 839 Rocket - Orbit

View from above orbital plane
View from above orbital plane
View from above satellite
View from above satellite

Ground track
Ground track

The orbit data is extracted from the following two-line orbital elements,

1  9013U 76067B   17023.87462765 -.00000025 +00000-0 +98744-4 0  9991
2  9013 065.8661 286.5481 0708042 130.1412 287.4715 12.35326041828586
Epoch (UTC): 23 January 2017 20:59:27
Eccentricity: 0.0708042
inclination: 65.8661°
perigee height: 967 km
apogee height: 2086 km
right ascension of ascending node: 286.5481°
argument of perigee: 130.1412°
revolutions per day: 12.35326041
mean anomaly at epoch: 287.4715°
orbit number at epoch: 82858

The dashed part of the orbit path shows where the satellite is in the earth's shadow,  

DLR